Location: Ch?enovice
(49.7164°N, 15.2160°E)
Time: 15:55:11
(UTC+00:00)

COSMOS 2406 - Pass Details

Date: 23 May 2024
Orbit: 843 x 862 km, 71.0° (Epoch: 12 June)

Event Time Altitude Azimuth Distance (km) Brightness Sun altitude
Exits shadow 01:19:32 12° 247° (WSW) 2,341 5.0 -12.8°
Maximum altitude 01:24:21 37° 311° (NW) 1,328 4.3 -12.3°
Drops below altitude 10° 01:29:39 10° 18° (NNE) 2,509 6.9 -11.8°
Sets 01:32:20 0° 27° (NNE) 3,448 8.3 -11.6°
